Flag for U.S.A. Weather past 2 weeks in Portland, Maine, U.S.A.

Now
30 °F

Overcast.


Feels Like: 21 °F
Forecast: 10 / 30 °F
Wind: 10 mph from South

Location: Portland - Portland International Jetport

Current Time: Mar 1, 2015 at 5:00:55 PM

Latest Report: Mar 1, 2015 at 3:51 PM


Visibility: 10 mi

Pressure: 30.40 "Hg

Humidity: 49%

Dew point: 13 °F

Location of PortlandLocation

Historic Weather in Portland — Graph

°F

Portland temperature yesterday

Maximum temperature yesterday: 27 °F (at 3:51 PM)
Minimum temperature yesterday: -4 °F (at 5:51 AM)
Average temperature yesterday: 14 °F

Past Weeks' High & Low Weather Summary

 TemperatureHumidityPressure
High34 °F (Feb 21, 8:51 PM)92% (Feb 19, 7:04 AM)30.72 "Hg (Feb 19, 7:04 AM)
Low-11 °F (Feb 24, 4:51 AM)27% (Feb 16, 2:51 PM)29.43 "Hg (Feb 15, 4:51 AM)
Average17 °F57%30.02 "Hg
* Reported Feb 14 3:00 PM — Mar 1 3:51 PM, Portland, Weather by CustomWeather, © 2015

Note: Actual official high and low records may vary slightly from our data, if they occured in-between our weather recording intervals... More about our weather records

Advertising

Portland weather history for previous 24 hours

 ConditionsComfort  
Time TempWeatherWind HumidityBarometerVisibility
3:51 PM
Sun, Mar 1
30 °FOvercast.10 mph49%30.40 "Hg10 mi
2:51 PM29 °FOvercast.10 mph51%30.42 "Hg10 mi
1:51 PM29 °FMostly cloudy.9 mph49%30.46 "Hg10 mi
12:51 PM28 °FMostly cloudy.6 mph49%30.50 "Hg10 mi
11:51 AM26 °FMostly cloudy.3 mph46%30.56 "Hg10 mi
10:51 AM22 °FMostly cloudy.No wind50%30.60 "Hg10 mi
9:51 AM20 °FOvercast.5 mph50%30.63 "Hg10 mi
8:51 AM13 °FHigh level clouds.6 mph59%30.66 "Hg10 mi
7:51 AM7 °FPartly sunny.6 mph70%30.68 "Hg10 mi
6:51 AM3 °FPartly sunny.5 mph76%30.66 "Hg10 mi
5:51 AM2 °FClear.6 mph76%30.66 "Hg10 mi
4:51 AM2 °FClear.6 mph76%30.67 "Hg10 mi
3:51 AM3 °FClear.5 mph76%30.68 "Hg10 mi
2:51 AM3 °FClear.No wind76%30.66 "Hg10 mi
1:51 AM5 °FClear.5 mph72%30.67 "Hg10 mi
12:51 AM8 °FClear.5 mph69%30.69 "Hg10 mi
11:51 PM
Sat, Feb 28
11 °FClear.No wind64%30.67 "Hg10 mi
10:51 PM15 °FClear.No wind53%30.67 "Hg10 mi
9:51 PM16 °FClear.5 mph53%30.68 "Hg10 mi
8:51 PM22 °FClear.6 mph42%30.67 "Hg10 mi
7:51 PM23 °FClear.5 mph50%30.66 "Hg10 mi
6:51 PM21 °FClear.3 mph62%30.66 "Hg10 mi
5:51 PM23 °FClear.No wind57%30.65 "Hg10 mi
Weather by CustomWeather, © 2015

See weather overviewHow to use our weather pages